#timestamp,LO_Frequency,Hit,StdDev 
1676426415.9,286046996.8,N
1676426435.7,286046996.5,N
1676426455.6,286047000.4,N
1676426475.4,286047001.1,N
1676426495.2,286046998.2,N
1676426515.1,286046998.3,N
1676426516.0,286046998.3,N
1676426535.8,286047000.7,N
1676426555.7,286047002.4,N
1676426575.5,286047001.5,N
1676426595.3,286047002.6,N
1676426615.2,286047001.9,N
1676426635.0,286047001.6,N
1676426635.9,286047001.6,N
1676426655.8,286047002.5,N
1676426675.6,286046999.7,N
1676426695.4,286047001.1,N
1676426715.3,286046998.6,N
1676426735.1,286047000.8,N
1676426755.8,286046999.8,N
1676426775.7,286047002.1,N
1676426795.5,286047002.7,N
1676426815.4,286047002.3,N
1676426835.2,286047002.4,N
1676426855.0,286047002.1,N
1676426855.9,286047002.1,N
1676426875.8,286047003.2,N
1676426895.6,286047004.4,N
1676426915.4,286047002.5,N
1676426935.3,286047000.1,N
1676426955.1,286047001.1,N
1676426975.9,286047000.0,N
1676426995.7,286046999.8,N
1676427015.5,286047000.3,N
1676427035.4,286046999.2,N
1676427055.2,286046997.3,N
1676427075.0,286046996.9,N
1676427075.9,286046996.9,N
1676427095.8,286046998.2,N
1676427115.6,286046999.9,N
1676427135.5,286046996.8,N
1676427155.3,286046998.7,N
1676427175.1,286047000.7,N
1676427195.9,286046998.9,N
1676427215.7,286046998.7,N
1676427235.5,286046999.0,N
1676427255.4,286046999.5,N
1676427275.2,286046999.4,N
1676427295.1,286047001.2,N
1676427296.0,286047001.2,N
1676427315.8,286046998.3,N
1676427335.6,286046998.9,N
1676427355.5,286047001.2,N
1676427375.3,286046996.6,N
1676427395.1,286046999.5,N
1676427415.9,286046999.2,N
1676427435.7,286046996.7,N
1676427455.6,286047001.0,N
1676427475.4,286047002.0,N
1676427495.2,286047002.3,N
1676427515.1,286047000.4,N
1676427516.0,286047000.4,N
1676427535.8,286046998.7,N
1676427555.6,286046999.4,N
1676427575.5,286047001.2,N
1676427595.3,286047000.3,N
1676427615.2,286047000.0,N
1676427635.9,286047001.4,N
1676427655.7,286047004.0,N
1676427675.6,286047002.5,N
1676427695.4,286046999.7,N
1676427715.2,286047001.1,N
1676427735.1,286046999.2,N
1676427736.0,286046999.2,N
1676427755.8,286047000.1,N
1676427775.7,286047000.4,N
1676427795.5,286046999.8,N
1676427815.3,286046999.8,N
1676427835.2,286047000.1,N
1676427855.0,286047000.1,N
1676427855.9,286047000.1,N
1676427875.8,286047002.7,N
1676427895.6,286047000.9,N
1676427915.4,286046996.8,N
1676427935.3,286046997.4,N
1676427955.1,286046995.4,N
1676427975.8,286046997.9,N
1676427995.7,286046996.5,N
1676428015.5,286046998.2,N
1676428035.4,286046998.9,N
1676428055.2,286046999.3,N
1676428075.0,286046996.8,N
1676428075.9,286046996.8,N
1676428095.8,286046997.0,N
1676428115.6,286046998.2,N
1676428135.4,286046998.3,N
1676428155.3,286047001.2,N
1676428175.1,286047000.4,N
1676428195.9,286047001.8,N
1676428215.7,286047000.0,N
1676428235.5,286047000.3,N
1676428255.4,286047000.5,N
1676428275.2,286047000.3,N
1676428295.0,286046998.3,N
1676428295.9,286046998.3,N
1676428315.8,286047000.7,N
1676428335.6,286046998.7,N
1676428355.5,286046999.7,N
1676428375.3,286047000.1,N
1676428395.1,286047001.9,N
1676428415.9,286047003.0,N
1676428435.7,286047001.8,N
1676428455.5,286047003.3,N
1676428475.4,286047004.2,N
1676428495.2,286047001.8,N
1676428515.1,286047002.0,N
1676428516.0,286047002.0,N
1676428535.8,286047001.9,N
1676428555.6,286047002.6,N
1676428575.5,286047001.5,N
1676428595.3,286047002.8,N
1676428615.2,286046999.7,N
1676428635.9,286047000.4,N
1676428655.7,286047000.1,N
1676428675.6,286047002.2,N
1676428695.4,286047000.0,N
1676428715.3,286047000.7,N
1676428735.1,286047000.6,N
1676428736.0,286047000.6,N
1676428755.8,286047000.8,N
1676428775.7,286047000.6,N
1676428795.5,286047000.0,N
1676428815.3,286047001.2,N
1676428835.2,286046996.6,N
1676428855.0,286046996.9,N
1676428855.9,286046996.9,N
1676428875.8,286046996.5,N
1676428895.6,286046998.8,N
1676428915.4,286046997.1,N
1676428935.3,286046995.8,N
1676428955.1,286046996.8,N
1676428975.8,286046997.0,N
1676428995.7,286046999.6,N
1676429015.5,286047000.7,N
1676429035.4,286047001.3,N
1676429055.2,286047001.0,N
1676429075.0,286046998.7,N
1676429075.9,286046998.7,N
1676429095.8,286046999.6,N
1676429115.6,286046997.5,N
1676429135.4,286046997.0,N
1676429155.3,286046998.4,N
1676429175.1,286046999.5,N
1676429195.8,286046998.4,N
1676429215.7,286046999.2,N
1676429235.5,286046999.3,N
1676429255.4,286046996.9,N
1676429275.2,286046998.7,N
1676429295.0,286046999.3,N
1676429296.0,286046999.3,N
1676429315.8,286046999.2,N
1676429335.6,286047000.7,N
1676429355.5,286047000.3,N
1676429375.3,286047002.5,N
1676429395.1,286047000.2,N
1676429415.9,286046996.7,N
1676429435.7,286046998.3,N
1676429455.6,286047000.9,N
1676429475.4,286046996.5,N
1676429495.2,286046999.6,N
1676429515.1,286046998.5,N
1676429516.0,286046998.5,N
1676429535.8,286047002.1,N
1676429555.6,286047001.4,N
1676429575.5,286047005.2,Y
1676429595.3,286047004.1,P
1676429615.2,286047001.8,N
1676429635.9,286047004.1,N
1676429655.7,286047003.8,N
1676429675.6,286047003.7,N
1676429695.4,286047001.4,N
1676429715.3,286047002.1,N
1676429735.1,286047002.8,N
1676429736.0,286047002.8,N
1676429755.8,286047000.1,N
1676429775.7,286047001.6,N
1676429795.5,286047004.2,N
1676429815.3,286047003.1,N
1676429835.2,286047005.0,Y
1676429855.0,286047002.8,P
1676429855.9,286047002.8,P
1676429875.8,286047001.1,P
1676429895.6,286046998.7,N
1676429915.4,286046998.0,N
1676429935.3,286046995.2,N
1676429955.1,286046996.7,N
1676429975.9,286046999.0,N
1676429995.7,286046999.3,N
